GW1031 Weather Reports


Display with metric or nautical units.
time (UTC)temp
F
wind
direction
speed
MPH
gust
MPH
rain 1hr
in
rain 24hr
in
rain mn
in
humidity
%
barometer
mb
20260831030634 59 96 1.0 1.0 0.00 0.08 0.08 88 1026.4
20260831030134 59 129 0.0 0.0 0.00 0.08 0.08 90 1026.3
20260831025632 59 147 0.0 0.0 0.00 0.08 0.08 91 1026.7
20260831025127 59 91 1.0 1.0 0.07 0.08 0.08 91 1026.3
20260831024624 60 91 1.0 1.0 0.12 0.08 0.08 89 1026.7
20260831024122 60 166 0.0 1.0 0.17 0.07 0.07 88 1026.5
20260831023620 61 68 1.0 1.0 0.19 0.06 0.06 89 1026.7
20260831023120 62 253 1.0 1.0 0.19 0.04 0.04 86 1026.8
20260831022615 63 162 0.0 1.0 0.26 0.04 0.04 84 1026.5
20260831022110 66 155 1.0 2.0 0.07 0.01 0.01 74 1026.0
20260831021609 68 141 4.0 5.0 0.00 0.00 0.00 65 1025.3
20260831021105 65 193 2.0 5.0 0.00 0.00 0.00 65 1024.9
20260831020600 65 161 0.0 0.0 0.00 0.00 0.00 69 1024.5
20260831020055 66 142 0.0 0.0 0.00 0.00 0.00 67 1023.8
20260831015551 65 135 0.0 0.0 0.00 0.00 0.00 66 1023.2
20260831015045 65 155 0.0 0.0 0.00 0.00 0.00 68 1023.1
20260831014540 65 186 0.0 0.0 0.00 0.00 0.00 67 1023.4
20260831014035 65 141 0.0 0.0 0.00 0.00 0.00 67 1022.9
20260831013531 66 141 0.0 0.0 0.00 0.00 0.00 67 1023.0
20260831013026 66 128 0.0 0.0 0.00 0.00 0.00 65 1022.8
20260831012520 66 161 0.0 0.0 0.00 0.00 0.00 64 1022.6
20260831012020 66 162 0.0 0.0 0.00 0.00 0.00 64 1022.5
20260831011515 67 182 0.0 0.0 0.00 0.00 0.00 62 1022.6
20260831011011 67 7 1.0 1.0 0.00 0.00 0.00 62 1022.6
20260831010510 67 83 0.0 1.0 0.00 0.00 0.00 60 1022.9
20260831010007 67 193 0.0 0.0 0.00 0.00 0.00 61 1022.8
20260831005502 67 56 2.0 2.0 0.00 0.00 0.00 60 1022.9
20260831005001 68 34 2.0 2.0 0.00 0.00 0.00 60 1022.8
20260831004458 68 90 0.0 0.0 0.00 0.00 0.00 61 1023.0
20260831003953 68 144 0.0 0.0 0.00 0.00 0.00 60 1022.9
20260831003449 69 125 3.0 3.0 0.00 0.00 0.00 58 1022.9
20260831002949 69 184 1.0 1.0 0.00 0.00 0.00 59 1023.1
20260831002448 69 148 0.0 0.0 0.00 0.00 0.00 59 1023.4
20260831001944 70 152 0.0 0.0 0.00 0.00 0.00 57 1023.1
20260831001439 72 175 0.0 0.0 0.00 0.00 0.00 53 1023.2
20260831000936 72 163 0.0 1.0 0.00 0.00 0.00 51 1023.0
20260831000432 72 211 0.0 1.0 0.00 0.00 0.00 48 1022.9
20260830235929 71 164 0.0 0.0 0.00 0.00 0.00 48 1022.9
20260830235425 71 69 1.0 1.0 0.00 0.00 0.00 48 1023.1
20260830234920 71 41 1.0 1.0 0.00 0.00 0.00 49 1022.9
20260830234415 70 223 2.0 3.0 0.00 0.00 0.00 50 1023.0
20260830233911 70 60 3.0 5.0 0.00 0.00 0.00 53 1023.0
20260830233406 70 83 4.0 6.0 0.00 0.00 0.00 53 1023.1
20260830232901 71 60 3.0 3.0 0.00 0.00 0.00 52 1023.2
20260830232357 73 156 1.0 2.0 0.00 0.00 0.00 47 1023.1
20260830231854 73 38 0.0 2.0 0.00 0.00 0.00 45 1023.0
20260830231348 73 70 3.0 5.0 0.00 0.00 0.00 44 1022.9
20260830230847 73 11 4.0 8.0 0.00 0.00 0.00 43 1022.5
20260830230343 74 139 2.0 2.0 0.00 0.00 0.00 44 1022.5
20260830225842 76 221 9.0 14.0 0.00 0.00 0.00 41 1022.4
20260830225338 82 160 1.0 1.0 0.00 0.00 0.00 36 1022.3
20260830224832 83 197 1.0 1.0 0.00 0.00 0.00 37 1021.0
20260830224321 81 207 0.0 0.0 0.00 0.00 0.00 43 1021.3
20260830223818 82 239 1.0 1.0 0.00 0.00 0.00 38 1021.3
20260830223314 82 200 0.0 0.0 0.00 0.00 0.00 41 1021.2
20260830222807 82 152 0.0 0.0 0.00 0.00 0.00 36 1020.9
20260830222306 82 152 0.0 0.0 0.00 0.00 0.00 38 1021.3
20260830221758 81 134 1.0 1.0 0.00 0.00 0.00 38 1021.2
20260830221255 82 289 1.0 1.0 0.00 0.00 0.00 43 1021.4
20260830220750 84 102 1.0 1.0 0.00 0.00 0.00 39 1021.4
20260830220249 84 208 2.0 2.0 0.00 0.00 0.00 34 1021.5
20260830215747 86 141 1.0 2.0 0.00 0.00 0.00 36 1021.3
20260830215242 86 207 1.0 2.0 0.00 0.00 0.00 36 1021.3
20260830214737 87 241 0.0 1.0 0.00 0.00 0.00 34 1021.9
20260830214237 87 138 0.0 1.0 0.00 0.00 0.00 37 1021.8
20260830213736 86 209 1.0 1.0 0.00 0.00 0.00 34 1021.8
20260830213231 86 171 1.0 1.0 0.00 0.00 0.00 36 1021.9
20260830212727 86 197 2.0 2.0 0.00 0.00 0.00 34 1022.1
20260830212223 86 184 1.0 2.0 0.00 0.00 0.00 35 1022.5
20260830211718 87 100 0.0 2.0 0.00 0.00 0.00 34 1022.0
20260830211216 85 173 2.0 2.0 0.00 0.00 0.00 34 1022.1
20260830210713 84 171 1.0 1.0 0.00 0.00 0.00 36 1022.0
20260830210212 84 217 0.0 1.0 0.00 0.00 0.00 34 1022.4
20260830205709 84 237 2.0 2.0 0.00 0.00 0.00 35 1022.0
20260830205204 85 249 1.0 1.0 0.00 0.00 0.00 37 1022.5
20260830204704 85 259 1.0 3.0 0.00 0.00 0.00 37 1022.5
20260830204203 85 118 1.0 1.0 0.00 0.00 0.00 38 1022.5
20260830203700 85 248 1.0 1.0 0.00 0.00 0.00 40 1022.9
20260830203155 84 187 0.0 1.0 0.00 0.00 0.00 38 1023.0
20260830202654 84 272 1.0 2.0 0.00 0.00 0.00 38 1023.1
20260830202150 84 164 1.0 1.0 0.00 0.00 0.00 37 1023.0
20260830201649 84 180 1.0 2.0 0.00 0.00 0.00 37 1023.1
20260830201144 83 171 1.0 1.0 0.00 0.00 0.00 41 1023.4
20260830200634 81 166 0.0 0.0 0.00 0.00 0.00 43 1023.4
20260830200133 79 189 0.0 0.0 0.00 0.00 0.00 44 1023.6
20260830195629 80 81 0.0 0.0 0.00 0.00 0.00 45 1023.7
20260830195127 80 151 1.0 1.0 0.00 0.00 0.00 43 1023.5
20260830194626 77 53 1.0 1.0 0.00 0.00 0.00 51 1023.8
20260830194121 76 164 0.0 0.0 0.00 0.00 0.00 56 1023.8
20260830193621 76 195 0.0 0.0 0.00 0.00 0.00 50 1024.0
20260830193115 77 211 0.0 0.0 0.00 0.00 0.00 51 1024.2
20260830192611 78 201 1.0 1.0 0.00 0.00 0.00 46 1024.0
20260830192111 79 160 2.0 2.0 0.00 0.00 0.00 44 1024.1
20260830191606 77 152 0.0 1.0 0.00 0.00 0.00 49 1024.1
20260830191102 76 145 0.0 0.0 0.00 0.00 0.00 48 1024.2
20260830190557 77 225 2.0 2.0 0.00 0.00 0.00 49 1024.7
20260830190052 77 203 0.0 0.0 0.00 0.00 0.00 50 1024.6
20260830185545 77 94 0.0 0.0 0.00 0.00 0.00 48 1024.7
20260830185041 76 285 0.0 1.0 0.00 0.00 0.00 53 1024.9
20260830184540 76 247 1.0 2.0 0.00 0.00 0.00 50 1025.1
20260830184034 76 120 1.0 1.0 0.00 0.00 0.00 48 1025.2
20260830183529 76 237 4.0 5.0 0.00 0.00 0.00 47 1024.9
20260830183025 76 122 1.0 1.0 0.00 0.00 0.00 52 1025.1
20260830182520 74 92 0.0 1.0 0.00 0.00 0.00 54 1025.2
20260830182016 73 118 0.0 1.0 0.00 0.00 0.00 56 1025.6
20260830181512 72 144 0.0 0.0 0.00 0.00 0.00 59 1025.6
20260830181011 72 156 0.0 0.0 0.00 0.00 0.00 59 1025.6
20260830180506 72 149 0.0 0.0 0.00 0.00 0.00 57 1025.6
20260830180004 72 144 0.0 2.0 0.00 0.00 0.00 57 1025.6
20260830175459 71 173 0.0 0.0 0.00 0.00 0.00 63 1026.0
20260830174954 71 125 0.0 0.0 0.00 0.00 0.00 60 1025.8
20260830174450 70 112 0.0 0.0 0.00 0.00 0.00 61 1026.0
20260830173949 70 159 0.0 1.0 0.00 0.00 0.00 61 1025.9
20260830173446 69 160 0.0 0.0 0.00 0.00 0.00 63 1025.8
20260830172941 69 251 1.0 2.0 0.00 0.00 0.00 62 1026.0
20260830172437 69 199 0.0 0.0 0.00 0.00 0.00 62 1026.0
20260830171933 68 90 0.0 0.0 0.00 0.00 0.00 67 1026.2
20260830171428 68 160 0.0 0.0 0.00 0.00 0.00 67 1026.2
20260830170923 68 126 0.0 0.0 0.00 0.00 0.00 63 1026.4
20260830170422 68 147 0.0 0.0 0.00 0.00 0.00 62 1026.5
20260830165920 68 159 0.0 0.0 0.00 0.00 0.00 64 1026.3
20260830165417 68 165 0.0 0.0 0.00 0.00 0.00 65 1026.0
20260830164913 68 158 1.0 1.0 0.00 0.00 0.00 66 1026.2
20260830164408 68 174 0.0 0.0 0.00 0.00 0.00 67 1026.3
20260830163905 68 164 0.0 0.0 0.00 0.00 0.00 69 1025.8
20260830163401 67 219 0.0 1.0 0.00 0.00 0.00 69 1026.0
20260830162900 67 150 0.0 1.0 0.00 0.00 0.00 70 1026.2
20260830162356 67 203 1.0 2.0 0.00 0.00 0.00 67 1026.3
20260830161851 67 168 0.0 1.0 0.00 0.00 0.00 67 1026.2
20260830161350 67 198 0.0 1.0 0.00 0.00 0.00 65 1025.9
20260830160846 67 238 0.0 1.0 0.00 0.00 0.00 69 1025.9
20260830160342 66 183 0.0 0.0 0.00 0.00 0.00 64 1025.8
20260830155837 66 150 0.0 0.0 0.00 0.00 0.00 68 1025.7
20260830155333 66 229 0.0 0.0 0.00 0.00 0.00 69 1025.9
20260830154833 66 181 0.0 0.0 0.00 0.00 0.00 70 1025.8
20260830154330 65 135 0.0 0.0 0.00 0.00 0.00 70 1025.8
20260830153826 65 113 1.0 1.0 0.00 0.00 0.00 71 1025.9
20260830153321 65 164 0.0 0.0 0.00 0.00 0.00 70 1025.8
20260830152819 65 164 0.0 0.0 0.00 0.00 0.00 70 1025.6
20260830152314 64 144 0.0 0.0 0.00 0.00 0.00 71 1026.0
20260830151809 64 141 0.0 0.0 0.00 0.00 0.00 71 1025.8
20260830151308 63 144 0.0 0.0 0.00 0.00 0.00 72 1025.9
20260830150803 63 149 0.0 0.0 0.00 0.00 0.00 74 1025.8
20260830150302 62 106 1.0 1.0 0.00 0.00 0.00 73 1026.0
20260830145757 62 142 0.0 0.0 0.00 0.00 0.00 75 1025.9
20260830145252 61 136 0.0 0.0 0.00 0.00 0.00 78 1025.8
20260830144748 60 135 0.0 0.0 0.00 0.00 0.00 82 1026.0
20260830144243 60 86 1.0 1.0 0.00 0.00 0.00 82 1026.0
20260830143739 60 106 1.0 1.0 0.00 0.00 0.00 86 1025.8
20260830143238 60 96 1.0 1.0 0.00 0.00 0.00 81 1026.2
20260830142733 60 172 0.0 0.0 0.00 0.00 0.00 83 1025.9
20260830142228 60 174 0.0 0.0 0.00 0.00 0.00 82 1025.9
20260830141723 61 160 0.0 0.0 0.00 0.00 0.00 80 1026.0
20260830141213 61 159 0.0 0.0 0.00 0.00 0.00 75 1026.2
20260830140707 61 139 0.0 0.0 0.00 0.00 0.00 74 1026.0
20260830140202 61 211 0.0 1.0 0.00 0.00 0.00 75 1026.0
20260830135657 60 93 1.0 1.0 0.00 0.00 0.00 74 1025.9
20260830135153 59 169 0.0 0.0 0.00 0.00 0.00 81 1026.0
20260830134649 58 177 0.0 0.0 0.00 0.00 0.00 83 1025.8
20260830134143 57 168 0.0 0.0 0.00 0.00 0.00 84 1025.8
20260830133639 57 168 0.0 0.0 0.00 0.00 0.00 87 1025.9
20260830133134 56 140 0.0 0.0 0.00 0.00 0.00 88 1025.9
20260830132630 56 139 0.0 0.0 0.00 0.00 0.00 89 1025.9
20260830132126 55 148 0.0 0.0 0.00 0.00 0.00 90 1025.7
20260830131625 55 163 0.0 0.0 0.00 0.00 0.00 91 1025.8
20260830131119 55 160 0.0 0.0 0.00 0.00 0.00 91 1025.8
20260830130614 54 155 0.0 0.0 0.00 0.00 0.00 91 1025.7
20260830130109 54 184 0.0 0.0 0.00 0.00 0.00 91 1025.7
20260830125603 54 138 0.0 0.0 0.00 0.00 0.00 90 1026.0
20260830125102 55 142 0.0 0.0 0.00 0.00 0.00 90 1025.7
20260830124601 55 142 0.0 0.0 0.00 0.00 0.00 90 1025.8
20260830124057 55 142 0.0 0.0 0.00 0.00 0.00 91 1025.4
20260830123554 55 112 0.0 1.0 0.00 0.00 0.00 90 1025.3
20260830123049 55 201 0.0 0.0 0.00 0.00 0.00 90 1025.4
20260830122546 55 135 0.0 0.0 0.00 0.00 0.00 90 1025.6
20260830122041 55 131 0.0 0.0 0.00 0.00 0.00 91 1025.6
20260830121537 55 123 0.0 0.0 0.00 0.00 0.00 91 1025.6
20260830121036 55 170 0.0 0.0 0.00 0.00 0.00 89 1025.7
20260830120532 54 196 0.0 0.0 0.00 0.00 0.00 90 1025.4
20260830120029 54 160 0.0 0.0 0.00 0.00 0.00 90 1025.4
20260830115524 54 160 0.0 0.0 0.00 0.00 0.00 90 1025.4
20260830115019 54 160 0.0 0.0 0.00 0.00 0.00 90 1025.6
20260830114516 54 160 0.0 0.0 0.00 0.00 0.00 90 1025.3
20260830114015 55 141 0.0 0.0 0.00 0.00 0.00 89 1025.4
20260830113510 55 143 0.0 0.0 0.00 0.00 0.00 89 1025.2
20260830113005 55 167 0.0 0.0 0.00 0.00 0.00 89 1025.3
20260830112501 55 166 0.0 0.0 0.00 0.00 0.00 89 1025.2
20260830111957 55 166 0.0 0.0 0.00 0.00 0.00 88 1025.2
20260830111453 55 166 0.0 0.0 0.00 0.00 0.00 88 1025.3
20260830110949 55 128 0.0 0.0 0.00 0.00 0.00 89 1025.3
20260830110443 55 149 0.0 0.0 0.00 0.00 0.00 89 1025.8
20260830105943 55 149 0.0 0.0 0.00 0.00 0.00 88 1025.6
20260830105439 55 141 0.0 0.0 0.00 0.00 0.00 88 1025.3
20260830104935 55 142 0.0 0.0 0.00 0.00 0.00 88 1025.2
20260830104431 55 133 0.0 0.0 0.00 0.00 0.00 89 1025.3
20260830103926 55 130 0.0 0.0 0.00 0.00 0.00 89 1025.4
20260830103422 55 191 0.0 0.0 0.00 0.00 0.00 87 1025.3
20260830102920 55 141 0.0 0.0 0.00 0.00 0.00 88 1025.4
20260830102415 55 135 0.0 0.0 0.00 0.00 0.00 88 1025.6
20260830101912 55 135 0.0 0.0 0.00 0.00 0.00 88 1025.8
20260830101407 55 149 0.0 0.0 0.00 0.00 0.00 89 1025.7
20260830100906 54 156 0.0 0.0 0.00 0.00 0.00 90 1025.6
20260830100405 54 168 0.0 0.0 0.00 0.00 0.00 90 1025.3
20260830095904 54 148 0.0 0.0 0.00 0.00 0.00 89 1025.3
20260830095400 54 174 0.0 0.0 0.00 0.00 0.00 89 1025.4
20260830094856 55 164 0.0 0.0 0.00 0.00 0.00 88 1025.4
20260830094352 55 168 0.0 0.0 0.00 0.00 0.00 87 1025.2
20260830093848 54 168 0.0 0.0 0.00 0.00 0.00 87 1025.3
20260830093343 54 128 0.0 0.0 0.00 0.00 0.00 88 1025.6
20260830092838 54 117 0.0 0.0 0.00 0.00 0.00 89 1025.4
20260830092334 55 123 0.0 0.0 0.00 0.00 0.00 86 1025.6
20260830091831 55 153 0.0 0.0 0.00 0.00 0.00 87 1025.3
20260830091330 55 146 0.0 0.0 0.00 0.00 0.00 87 1025.6
20260830090829 55 146 0.0 0.0 0.00 0.00 0.00 87 1025.4
20260830090325 55 143 0.0 0.0 0.00 0.00 0.00 87 1025.6
20260830085824 55 136 0.0 0.0 0.00 0.00 0.00 87 1025.3
20260830085320 56 146 0.0 0.0 0.00 0.00 0.00 87 1025.8
20260830084816 56 175 0.0 0.0 0.00 0.00 0.00 84 1025.6
20260830084311 56 175 0.0 0.0 0.00 0.00 0.00 84 1025.7
20260830083806 55 175 0.0 0.0 0.00 0.00 0.00 84 1025.6
20260830083302 56 175 0.0 0.0 0.00 0.00 0.00 84 1025.7
20260830082801 56 175 0.0 0.0 0.00 0.00 0.00 83 1025.7
20260830082256 56 183 0.0 0.0 0.00 0.00 0.00 83 1025.4
20260830081751 57 183 0.0 0.0 0.00 0.00 0.00 81 1025.6
20260830081245 56 197 0.0 0.0 0.00 0.00 0.00 82 1025.8
20260830080740 56 173 0.0 0.0 0.00 0.00 0.00 84 1025.7
20260830080236 56 173 0.0 0.0 0.00 0.00 0.00 85 1025.4
20260830075735 57 144 0.0 0.0 0.00 0.00 0.00 84 1025.3
20260830075231 57 144 0.0 0.0 0.00 0.00 0.00 83 1025.3
20260830074726 58 144 0.0 0.0 0.00 0.00 0.00 81 1025.3
20260830074222 58 145 0.0 0.0 0.00 0.00 0.00 80 1025.6
20260830073718 57 201 0.0 0.0 0.00 0.00 0.00 81 1025.7
20260830073213 57 145 0.0 0.0 0.00 0.00 0.00 82 1025.4
20260830072713 57 126 0.0 0.0 0.00 0.00 0.00 82 1025.3
20260830072208 58 120 0.0 0.0 0.00 0.00 0.00 82 1025.4
20260830071703 58 154 0.0 0.0 0.00 0.00 0.00 82 1025.6
20260830071202 58 144 0.0 0.0 0.00 0.00 0.00 80 1025.8
20260830070656 59 143 0.0 0.0 0.00 0.00 0.00 79 1025.4
20260830070151 59 143 0.0 0.0 0.00 0.00 0.00 78 1025.8
20260830065650 59 167 0.0 0.0 0.00 0.00 0.00 77 1025.9
20260830065149 60 167 0.0 0.0 0.00 0.00 0.00 76 1026.0
20260830064643 60 169 0.0 0.0 0.00 0.00 0.00 75 1025.8
20260830064138 60 168 0.0 0.0 0.00 0.00 0.00 77 1025.7
20260830063638 60 89 0.0 0.0 0.00 0.00 0.00 76 1025.8
20260830063137 60 170 0.0 0.0 0.00 0.00 0.00 75 1025.8
20260830062632 60 132 0.0 0.0 0.00 0.00 0.00 76 1025.7
20260830062127 60 187 0.0 0.0 0.00 0.00 0.00 75 1025.7
20260830061621 61 166 0.0 0.0 0.00 0.00 0.00 73 1025.6
20260830061117 61 150 0.0 0.0 0.00 0.00 0.00 73 1025.8
20260830060614 61 214 0.0 0.0 0.00 0.00 0.00 73 1025.8
20260830060110 61 160 0.0 0.0 0.00 0.00 0.00 72 1025.4
20260830055559 61 225 0.0 1.0 0.00 0.00 0.00 74 1025.2
20260830055055 61 149 0.0 0.0 0.00 0.00 0.00 73 1025.1
20260830054550 61 145 0.0 0.0 0.00 0.00 0.00 75 1025.3
20260830054045 62 141 0.0 0.0 0.00 0.00 0.00 75 1025.1
20260830053540 62 154 0.0 0.0 0.00 0.00 0.00 73 1024.8
20260830053035 62 155 0.0 0.0 0.00 0.00 0.00 69 1024.8
20260830052531 63 197 0.0 0.0 0.00 0.00 0.00 69 1024.6
20260830052030 64 131 0.0 0.0 0.00 0.00 0.00 69 1024.8
20260830051526 65 145 0.0 0.0 0.00 0.00 0.00 63 1024.7
20260830051021 66 126 0.0 1.0 0.00 0.00 0.00 66 1024.7
20260830050515 66 179 0.0 0.0 0.00 0.00 0.00 59 1024.5
20260830050015 66 188 0.0 0.0 0.00 0.00 0.00 61 1024.6
20260830045513 67 171 0.0 0.0 0.00 0.00 0.00 60 1024.7
20260830045009 67 149 0.0 0.0 0.00 0.00 0.00 57 1024.2
20260830044503 68 187 0.0 0.0 0.00 0.00 0.00 55 1024.8
20260830043958 69 198 0.0 0.0 0.00 0.00 0.00 53 1024.9
20260830043453 69 195 0.0 0.0 0.00 0.00 0.00 52 1024.9
20260830042951 69 195 0.0 0.0 0.00 0.00 0.00 52 1024.7
20260830042445 69 168 0.0 0.0 0.00 0.00 0.00 52 1024.8
20260830041944 69 202 0.0 0.0 0.00 0.00 0.00 52 1024.8
20260830041438 69 195 0.0 0.0 0.00 0.00 0.00 52 1024.9
20260830040933 69 194 0.0 0.0 0.00 0.00 0.00 50 1024.8
20260830040429 70 194 0.0 0.0 0.00 0.00 0.00 52 1024.9
20260830035928 70 187 0.0 0.0 0.00 0.00 0.00 50 1024.8
20260830035427 70 263 1.0 1.0 0.00 0.00 0.00 50 1025.2
20260830034922 70 159 0.0 0.0 0.00 0.00 0.00 51 1025.2
20260830034418 70 175 0.0 0.0 0.00 0.00 0.00 51 1025.4
20260830033913 71 225 0.0 1.0 0.00 0.00 0.00 51 1025.1
20260830033408 72 157 0.0 0.0 0.00 0.00 0.00 48 1025.1
20260830032903 73 146 0.0 0.0 0.00 0.00 0.00 47 1025.4
20260830032402 73 165 0.0 0.0 0.00 0.00 0.00 43 1025.3
20260830031857 74 187 0.0 1.0 0.00 0.00 0.00 41 1025.2
20260830031353 73 151 2.0 3.0 0.00 0.00 0.00 41 1025.1